Ash Shahaniyah, Qatar

1:41 PM +03 on May 22, 2018 (GMT +0300)
Ash Shahaniyah

Weather History for WKQIR - December, 2013

Change the Weather History Date:

Saturday, December 14, 2013

  Actual Average Record
Temperature  
Mean Temperature 74 °F -  
Max Temperature 85 °F - - ()
Min Temperature 62 °F - - ()
Cooling Degree Days 8    
Growing Degree Days 24 (Base 50)    
Moisture  
Dew Point 58 °F    
Average Humidity 67    
Maximum Humidity 97    
Minimum Humidity 27    
Precipitation  
Precipitation 0.00 in - - ()
Sea Level Pressure  
Sea Level Pressure 30.03 in    
Wind  
Wind Speed 5 mph ()    
Max Wind Speed 18 mph    
Max Gust Speed 18 mph    
Visibility 6.2 miles    
Events      
T = Trace of Precipitation, MM = Missing Value Source: Averaged Metar Reports

Daily Weather History Graph

Daily Weather History Graph

Search for Another Location

Airport or City:

Astronomy

Dec. 14, 2013 Rise Set
Actual Time 6:12 AM +03 4:46 PM +03
Civil Twilight 5:47 AM +03 5:12 PM +03
Nautical Twilight 5:18 AM +03 5:40 PM +03
Astronomical Twilight 4:50 AM +03 6:08 PM +03
Moon 2:42 PM +03 (12/14) 3:22 AM +03 (12/14)
Length of Visible Light 11h 24m
Length of Day
10h 34m
Waxing Gibbous, 92% of the Moon is Illuminated
Dec 14
Waxing Gibbous
Dec 17
Full
Dec 25
Last Quarter
Jan 1
New
Jan 8
First Quarter

Hourly Weather History & Observations

Time (+03) Temp. Heat Index Dew Point Humidity Pressure Visibility Wind Dir Wind Speed Gust Speed Precip Events Conditions
12:58 AM 67.1 °F - 63.0 °F 87% 30.01 in 6.2 mi NE 3.5 mph - N/A   Clear
1:58 AM 64.9 °F - 62.1 °F 90% 30.00 in 6.2 mi ENE 1.2 mph - N/A   Clear
2:58 AM 63.9 °F - 61.5 °F 92% 30.00 in 6.2 mi NNW 3.5 mph - N/A   Clear
3:58 AM 63.1 °F - 61.3 °F 94% 30.01 in 6.2 mi NNW 2.3 mph - N/A   Clear
4:58 AM 62.6 °F - 61.9 °F 97% 30.02 in 6.2 mi NNW 1.2 mph - N/A   Clear
5:58 AM 63.3 °F - 61.9 °F 95% 30.03 in 6.2 mi ESE 1.2 mph - N/A   Clear
6:58 AM 63.5 °F - 62.8 °F 97% 30.06 in 6.2 mi SE 3.5 mph - N/A   Clear
7:18 AM 66.2 °F - 62.6 °F 88% 30.06 in - SE 3.5 mph - N/A   Clear
7:58 AM 67.5 °F - 63.0 °F 85% 30.08 in 6.2 mi SE 4.6 mph - N/A   Clear
8:58 AM 73.0 °F - 67.3 °F 82% 30.09 in 6.2 mi SSE 6.9 mph - N/A   Clear
9:58 AM 77.2 °F - 64.2 °F 64% 30.08 in 6.2 mi SSE 10.4 mph - N/A   Clear
10:58 AM 80.6 °F 80.9 °F 57.9 °F 46% 30.05 in 6.2 mi SSE 11.5 mph - N/A   Clear
11:58 AM 83.7 °F - 50.5 °F 32% 30.02 in 6.2 mi SSW 9.2 mph - N/A   Clear
12:58 PM 84.6 °F - 47.7 °F 28% 29.99 in 6.2 mi SSW 8.1 mph - N/A   Clear
1:58 PM 85.1 °F - 47.1 °F 27% 29.98 in 6.2 mi SSW 6.9 mph - N/A   Clear
2:58 PM 84.6 °F - 46.6 °F 27% 29.98 in 6.2 mi SSW 6.9 mph - N/A   Clear
3:58 PM 83.3 °F - 46.6 °F 28% 29.98 in 6.2 mi WSW 6.9 mph - N/A   Clear
4:58 PM 80.1 °F - 47.3 °F 32% 29.99 in 6.2 mi SW 3.5 mph - N/A   Clear
5:58 PM 76.8 °F - 48.4 °F 37% 30.02 in 6.2 mi WNW 3.5 mph - N/A   Clear
6:58 PM 72.7 °F - 55.9 °F 56% 30.03 in 6.2 mi SSE 5.8 mph - N/A   Clear
7:58 PM 70.9 °F - 57.4 °F 62% 30.04 in 6.2 mi West 10.4 mph 18.4 mph N/A   Clear
8:58 PM 70.5 °F - 58.5 °F 66% 30.05 in 6.2 mi NNW 17.3 mph - N/A   Clear
9:58 PM 69.3 °F - 63.5 °F 82% 30.06 in 6.2 mi NNW 15.0 mph - N/A   Clear
10:58 PM 69.8 °F - 68.0 °F 94% 30.05 in 6.2 mi NNW 18.4 mph - N/A   Clear
11:58 PM 69.8 °F - 67.6 °F 93% 30.05 in 6.2 mi NNW 18.4 mph - N/A   Clear